, AK

(GMT )
Denali Park

Weather History for PAIN - November, 2012

Change the Weather History Date:

Thursday, November 8, 2012

  Actual Average Record
Temperature  
Mean Temperature 3 °F -  
Max Temperature 24 °F 20 °F 42 °F (1979)
Min Temperature -18 °F 4 °F -25 °F (1956)
Degree Days  
Heating Degree Days 62    
Moisture  
Dew Point -7 °F    
Average Humidity 76    
Maximum Humidity 92    
Minimum Humidity 50    
Precipitation  
Precipitation 0.00 in - - ()
Sea Level Pressure  
Sea Level Pressure 30.22 in    
Wind  
Wind Speed 1 mph (SW)    
Max Wind Speed 8 mph    
Max Gust Speed -    
Visibility 10 miles    
Events      
Averages and records for this station are not official NWS values.
T = Trace of Precipitation, MM = Missing Value Source: NWS Daily Summary

Daily Weather History Graph

Daily Weather History Graph

Search for Another Location

Airport or City:

Trip Planner

Search our weather history database for the weather conditions in past years. The results will help you decide how hot, cold, wet, or windy it might be!

Date:

Astronomy

Nov. 08, 2012 Rise Set
Actual Time 9:00 AM AKST 4:17 PM AKST
Civil Twilight 8:05 AM AKST 5:12 PM AKST
Nautical Twilight 7:07 AM AKST 6:10 PM AKST
Astronomical Twilight 6:12 AM AKST 7:05 PM AKST
Moon 1:11 AM AKST (11/8) 2:45 PM AKST (11/8)
Length of Visible Light 9h 07m
Length of Day
7h 16m
Waning Crescent, 31% of the Moon is Illuminated
Nov 8
Waning Crescent
Nov 13
New
Nov 20
First Quarter
Nov 28
Full
Dec 6
Last Quarter

Hourly Weather History & Observations

Time (AKST) Temp. Windchill Dew Point Humidity Pressure Visibility Wind Dir Wind Speed Gust Speed Precip Events Conditions
12:16 AM -16.6 °F - -18.4 °F 92% 30.34 in 10.0 mi Calm Calm - N/A   Clear
12:36 AM -16.6 °F - -20.2 °F 84% 30.34 in 10.0 mi Calm Calm - N/A   Clear
12:56 AM -16.6 °F - -20.2 °F 84% 30.34 in 10.0 mi Calm Calm - N/A   Clear
1:16 AM -16.6 °F - -20.2 °F 84% 30.34 in 10.0 mi Calm Calm - N/A   Clear
1:36 AM -16.6 °F - -20.2 °F 84% 30.34 in 10.0 mi Calm Calm - N/A   Clear
1:56 AM -16.6 °F - -20.2 °F 84% 30.34 in 10.0 mi Calm Calm - N/A   Clear
2:16 AM -16.6 °F - -20.2 °F 84% 30.33 in 10.0 mi Calm Calm - N/A   Clear
2:36 AM -16.6 °F - -20.2 °F 84% 30.33 in 10.0 mi Calm Calm - N/A   Clear
2:56 AM -16.6 °F - -20.2 °F 84% 30.33 in 10.0 mi Calm Calm - N/A   Clear
3:16 AM -18.4 °F - -22.0 °F 84% 30.33 in 10.0 mi Calm Calm - N/A   Clear
3:36 AM -16.6 °F - -20.2 °F 84% 30.33 in 10.0 mi Calm Calm - N/A   Clear
3:56 AM -16.6 °F - -20.2 °F 84% 30.32 in 10.0 mi Calm Calm - N/A   Clear
4:16 AM -16.6 °F - -20.2 °F 84% 30.32 in 10.0 mi Calm Calm - N/A   Clear
4:36 AM -18.4 °F - -22.0 °F 84% 30.31 in 10.0 mi Calm Calm - N/A   Clear
4:56 AM -16.6 °F -26.8 °F -20.2 °F 84% 30.31 in 10.0 mi SSW 3.5 mph - N/A   Clear
5:16 AM -16.6 °F - -20.2 °F 84% 30.30 in 10.0 mi Calm Calm - N/A   Clear
5:36 AM -16.6 °F - -20.2 °F 84% 30.30 in 10.0 mi Calm Calm - N/A   Clear
5:56 AM -16.6 °F - -20.2 °F 84% 30.30 in 10.0 mi Calm Calm - N/A   Clear
6:16 AM -18.4 °F - -22.0 °F 84% 30.30 in 10.0 mi Calm Calm - N/A   Clear
6:36 AM -16.6 °F - -20.2 °F 84% 30.29 in 10.0 mi Calm Calm - N/A   Clear
6:56 AM -16.6 °F - -22.0 °F 76% 30.29 in 10.0 mi Calm Calm - N/A   Clear
7:16 AM -18.4 °F - -22.0 °F 84% 30.29 in 10.0 mi Calm Calm - N/A   Clear
7:36 AM -18.4 °F - -20.2 °F 91% 30.28 in 10.0 mi Calm Calm - N/A   Clear
7:56 AM -16.6 °F - -20.2 °F 84% 30.28 in 10.0 mi Calm Calm - N/A   Clear
8:16 AM -16.6 °F - -20.2 °F 84% 30.28 in 10.0 mi Calm Calm - N/A   Clear
8:36 AM -16.6 °F - -20.2 °F 84% 30.27 in 10.0 mi Calm Calm - N/A   Clear
8:56 AM -16.6 °F - -20.2 °F 84% 30.27 in 10.0 mi Calm Calm - N/A   Clear
9:16 AM -16.6 °F -26.8 °F -20.2 °F 84% 30.27 in 10.0 mi South 3.5 mph - N/A   Clear
9:36 AM -14.8 °F - -18.4 °F 84% 30.27 in 10.0 mi Calm Calm - N/A   Clear
9:56 AM -14.8 °F - -18.4 °F 84% 30.26 in 10.0 mi Calm Calm - N/A   Clear
10:16 AM -13.0 °F - -16.6 °F 84% 30.26 in 10.0 mi Calm Calm - N/A   Clear
10:36 AM -9.4 °F - -11.2 °F 92% 30.26 in 10.0 mi Calm Calm - N/A   Clear
10:56 AM -7.6 °F - -9.4 °F 92% 30.25 in 10.0 mi Calm Calm - N/A   Clear
11:16 AM -5.8 °F - -7.6 °F 92% 30.25 in 10.0 mi Calm Calm - N/A   Clear
11:36 AM -2.2 °F -10.4 °F -5.8 °F 85% 30.24 in 10.0 mi South 3.5 mph - N/A   Clear
11:56 AM -2.2 °F - -5.8 °F 85% 30.24 in 10.0 mi Calm Calm - N/A   Clear
12:16 PM -0.4 °F - -4.0 °F 85% 30.24 in 10.0 mi Calm Calm - N/A   Clear
12:36 PM -0.4 °F - -2.2 °F 92% 30.23 in 10.0 mi Calm Calm - N/A   Clear
12:56 PM 3.2 °F -4.2 °F -0.4 °F 85% 30.23 in 10.0 mi South 3.5 mph - N/A   Clear
1:16 PM 3.2 °F - 1.4 °F 92% 30.22 in 10.0 mi Calm Calm - N/A   Clear
1:36 PM 5.0 °F - 1.4 °F 85% 30.21 in 10.0 mi Calm Calm - N/A   Clear
1:56 PM 3.2 °F -4.2 °F 1.4 °F 92% 30.21 in 10.0 mi SW 3.5 mph - N/A   Clear
2:16 PM 8.6 °F 2.0 °F 6.8 °F 92% 30.19 in 10.0 mi SSW 3.5 mph - N/A   Clear
2:36 PM 12.2 °F 6.1 °F 6.8 °F 79% 30.19 in 10.0 mi SW 3.5 mph - N/A   Clear
2:56 PM 12.2 °F 4.3 °F 6.8 °F 79% 30.18 in 10.0 mi SW 4.6 mph - N/A   Clear
3:16 PM 12.2 °F 1.7 °F 6.8 °F 79% 30.17 in 10.0 mi SW 6.9 mph - N/A   Clear
3:36 PM 14.0 °F 8.2 °F 6.8 °F 73% 30.18 in 10.0 mi WSW 3.5 mph - N/A   Clear
3:56 PM 10.4 °F 2.2 °F 6.8 °F 85% 30.17 in 10.0 mi WSW 4.6 mph - N/A   Clear
4:16 PM 14.0 °F 2.9 °F 5.0 °F 67% 30.17 in 10.0 mi SW 8.1 mph - N/A   Clear
4:36 PM 17.6 °F 12.3 °F 5.0 °F 58% 30.16 in 10.0 mi SW 3.5 mph - N/A   Clear
4:56 PM 15.8 °F - 5.0 °F 62% 30.16 in 10.0 mi Calm Calm - N/A   Clear
5:16 PM 14.0 °F 6.5 °F 6.8 °F 73% 30.16 in 10.0 mi WSW 4.6 mph - N/A   Clear
5:36 PM 15.8 °F 10.2 °F 5.0 °F 62% 30.15 in 10.0 mi SW 3.5 mph - N/A   Clear
5:56 PM 17.6 °F 9.3 °F 5.0 °F 58% 30.15 in 10.0 mi WSW 5.8 mph - N/A   Clear
6:16 PM 17.6 °F 7.3 °F 5.0 °F 58% 30.14 in 10.0 mi WSW 8.1 mph - N/A   Clear
6:36 PM 17.6 °F 7.3 °F 5.0 °F 58% 30.13 in 10.0 mi West 8.1 mph - N/A   Clear
6:56 PM 19.4 °F 10.4 °F 5.0 °F 54% 30.14 in 10.0 mi WSW 6.9 mph - N/A   Clear
7:16 PM 19.4 °F 12.8 °F 6.8 °F 58% 30.13 in 10.0 mi WSW 4.6 mph - N/A   Clear
7:36 PM 19.4 °F 11.5 °F 6.8 °F 58% 30.13 in 10.0 mi SSW 5.8 mph - N/A   Clear
7:56 PM 19.4 °F 11.5 °F 6.8 °F 58% 30.13 in 10.0 mi SW 5.8 mph - N/A   Clear
8:16 PM 19.4 °F 14.3 °F 6.8 °F 58% 30.12 in 10.0 mi SSW 3.5 mph - N/A   Partly Cloudy
8:36 PM 19.4 °F 10.4 °F 6.8 °F 58% 30.11 in 10.0 mi WSW 6.9 mph - N/A   Scattered Clouds
8:56 PM 19.4 °F 10.4 °F 6.8 °F 58% 30.11 in 10.0 mi WSW 6.9 mph - N/A   Mostly Cloudy
9:16 PM 19.4 °F 14.3 °F 8.6 °F 63% 30.10 in 10.0 mi South 3.5 mph - N/A   Mostly Cloudy
9:36 PM 21.2 °F - 6.8 °F 54% 30.10 in 10.0 mi Calm Calm - N/A   Overcast
9:56 PM 21.2 °F - 8.6 °F 58% 30.09 in 10.0 mi Calm Calm - N/A   Scattered Clouds
10:16 PM 21.2 °F 16.4 °F 8.6 °F 58% 30.09 in 10.0 mi SW 3.5 mph - N/A   Partly Cloudy
10:36 PM 21.2 °F 16.4 °F 8.6 °F 58% 30.08 in 10.0 mi SSW 3.5 mph - N/A   Scattered Clouds
10:56 PM 23.0 °F 14.7 °F 6.8 °F 50% 30.08 in 10.0 mi SW 6.9 mph - N/A   Scattered Clouds
11:16 PM 23.0 °F 17.0 °F 6.8 °F 50% 30.08 in 10.0 mi SW 4.6 mph - N/A   Partly Cloudy
11:36 PM 24.8 °F 20.5 °F 8.6 °F 50% 30.07 in 10.0 mi South 3.5 mph - N/A   Partly Cloudy
11:56 PM 24.8 °F 16.9 °F 8.6 °F 50% 30.07 in 10.0 mi SSE 6.9 mph - N/A   Clear